Clinton, IA

9:50 AM CST on November 12, 2019 (GMT -0600)
Clinton Municipal

Weather History for KCWI - October, 2019

Change the Weather History Date:

Sunday, October 20, 2019

  Actual Average Record
Temperature  
Mean Temperature 53 °F -  
Max Temperature 64 °F 62 °F 85 °F (1953)
Min Temperature 42 °F 39 °F 23 °F (2002)
Degree Days  
Heating Degree Days 12    
Growing Degree Days 3 (Base 50)    
Moisture  
Dew Point 47 °F    
Average Humidity 89    
Maximum Humidity 100    
Minimum Humidity 54    
Precipitation  
Precipitation 0.00 in - - ()
Sea Level Pressure  
Sea Level Pressure 29.88 in    
Wind  
Wind Speed 4 mph ()    
Max Wind Speed 15 mph    
Max Gust Speed -    
Visibility 4.5 miles    
Events Fog , Rain    
Averages and records for this station are not official NWS values.
T = Trace of Precipitation, MM = Missing Value Source: Averaged Metar Reports

Daily Weather History Graph

Daily Weather History Graph

Search for Another Location

Airport or City:

Astronomy

Oct. 20, 2019 Rise Set
Actual Time 7:19 AM CDT 6:12 PM CDT
Civil Twilight 6:50 AM CDT 6:40 PM CDT
Nautical Twilight 6:18 AM CDT 7:13 PM CDT
Astronomical Twilight 5:46 AM CDT 7:45 PM CDT
Moon 11:17 PM CDT (10/20) 1:50 PM CDT (10/20)
Length of Visible Light 11h 49m
Length of Day
10h 53m
Waning Gibbous, 59% of the Moon is Illuminated
Oct 20
Waning Gibbous
Oct 21
Last Quarter
Oct 27
New
Nov 4
First Quarter
Nov 12
Full

Hourly Weather History & Observations

Time (CDT) Temp. Windchill Dew Point Humidity Pressure Visibility Wind Dir Wind Speed Gust Speed Precip Events Conditions
12:56 AM 50.0 °F - 48.9 °F 96% 29.82 in 10.0 mi WNW 5.8 mph - N/A   Overcast
1:42 AM 46.4 °F 45.2 °F 46.4 °F 100% 29.82 in 2.5 mi NW 3.5 mph - N/A   Overcast
1:45 AM 46.4 °F - 46.4 °F 100% 29.82 in 1.0 mi Calm Calm - N/A   Overcast
1:48 AM 46.4 °F - 46.4 °F 100% 29.82 in 0.5 mi Calm Calm - N/A Fog Fog
1:56 AM 46.0 °F 44.8 °F 46.0 °F 100% 29.84 in 0.5 mi WNW 3.5 mph - N/A Fog Fog
2:13 AM 46.4 °F 45.2 °F 46.4 °F 100% 29.83 in 0.2 mi West 3.5 mph - N/A Fog Fog
2:56 AM 46.0 °F 44.8 °F 46.0 °F 100% 29.85 in 0.2 mi West 3.5 mph - N/A Fog Fog
3:56 AM 44.1 °F 41.5 °F 44.1 °F 100% 29.87 in 0.2 mi West 4.6 mph - 0.00 in Fog , Rain Light Rain
4:56 AM 42.1 °F - 42.1 °F 100% 29.87 in 0.5 mi Calm Calm - 0.00 in Fog Fog
5:11 AM 42.8 °F - 42.8 °F 100% 29.86 in 0.2 mi Calm Calm - N/A Fog Fog
5:56 AM 42.1 °F - 42.1 °F 100% 29.89 in 0.2 mi Calm Calm - N/A Fog Fog
6:56 AM 42.1 °F 39.2 °F 42.1 °F 100% 29.91 in 0.2 mi SSE 4.6 mph - 0.00 in Fog Fog
7:56 AM 44.1 °F 42.5 °F 44.1 °F 100% 29.93 in 0.2 mi South 3.5 mph - 0.00 in Fog , Rain Light Rain
8:56 AM 45.0 °F 41.8 °F 45.0 °F 100% 29.94 in 0.2 mi SE 5.8 mph - 0.00 in Fog , Rain Light Rain
9:56 AM 46.9 °F - 46.9 °F 100% 29.97 in 0.2 mi Variable 3.5 mph - 0.00 in Fog Fog
10:56 AM 48.9 °F - 48.9 °F 100% 29.96 in 0.2 mi SSE 8.1 mph - N/A Fog Fog
11:40 AM 50.0 °F - 50.0 °F 100% 29.94 in 0.5 mi SE 6.9 mph - 0.00 in Fog Fog
11:50 AM 50.0 °F - 50.0 °F 100% 29.94 in 1.0 mi Variable 5.8 mph - 0.00 in   Overcast
11:56 AM 50.0 °F - 50.0 °F 100% 29.97 in 1.2 mi South 5.8 mph - 0.00 in   Overcast
12:32 PM 51.8 °F - 51.8 °F 100% 29.94 in 3.0 mi SSE 4.6 mph - N/A   Overcast
12:56 PM 51.1 °F - 51.1 °F 100% 29.96 in 4.0 mi Variable 3.5 mph - N/A   Overcast
1:23 PM 53.6 °F - 51.8 °F 94% 29.92 in 6.0 mi Calm Calm - N/A   Overcast
1:41 PM 53.6 °F - 51.8 °F 94% 29.91 in 8.0 mi East 3.5 mph - N/A   Mostly Cloudy
1:56 PM 55.9 °F - 53.1 °F 90% 29.92 in 8.0 mi Variable 3.5 mph - N/A   Partly Cloudy
2:56 PM 63.0 °F - 51.1 °F 65% 29.90 in 10.0 mi ESE 4.6 mph - N/A   Clear
3:56 PM 64.9 °F - 48.0 °F 54% 29.90 in 10.0 mi ESE 10.4 mph - N/A   Clear
4:56 PM 62.1 °F - 46.9 °F 58% 29.88 in 10.0 mi ESE 8.1 mph - N/A   Clear
5:56 PM 57.9 °F - 45.0 °F 62% 29.88 in 10.0 mi East 8.1 mph - N/A   Clear
6:56 PM 57.9 °F - 42.1 °F 56% 29.87 in 10.0 mi ESE 10.4 mph - N/A   Clear
7:56 PM 57.0 °F - 42.1 °F 57% 29.87 in 10.0 mi ESE 11.5 mph - N/A   Clear
8:56 PM 55.9 °F - 42.1 °F 60% 29.87 in 10.0 mi ESE 10.4 mph - N/A   Clear
9:56 PM 55.0 °F - 45.0 °F 69% 29.86 in 10.0 mi ESE 10.4 mph - N/A   Clear
10:56 PM 54.0 °F - 48.0 °F 80% 29.84 in 10.0 mi ESE 11.5 mph - N/A   Clear
11:49 PM 53.6 °F - 50.0 °F 88% 29.79 in 10.0 mi ESE 13.8 mph - N/A   Overcast
11:56 PM 54.0 °F - 50.0 °F 86% 29.80 in 10.0 mi ESE 15.0 mph - N/A   Overcast